Location: *
(38.9555°S, 57.3572°E)
Time: 01:09:54
(UTC+00:00)

Okean O Rocket - Pass Details

Date: 15 July 2020
Orbit: 623 x 645 km, 98.2° (Epoch: 06 August)

Event Time Altitude Azimuth Distance (km) Brightness Sun altitude
Rises 14:18:22 0° 168° (SSE) 2,988 4.8 -13.6°
Reaches altitude 10° 14:20:36 10° 168° (SSE) 2,068 4.0 -14.0°
Maximum altitude 14:25:08 85° 256° (WSW) 655 1.7 -14.8°
Drops below altitude 10° 14:29:33 10° 344° (NNW) 2,025 4.6 -15.7°
Sets 14:31:43 0° 344° (NNW) 2,921 5.5 -16.1°
